Regional Weather Roundup
Issued by NWS New Orleans/Baton Rouge, LA

Home | Current Version | Previous Version | Text Only | Print | Product List | Glossary On
Versions: 1 2 3 4 5 6 7 8 9 10 11 12 13 14 15 16 17 18 19 20 21 22 23 24 25 26 27
000
ASUS44 KLIX 221813
RWRLIX
NEW ORLEANS REGIONAL WEATHER ROUNDUP
NATIONAL WEATHER SERVICE NEW ORLEANS LA
1200 PM CST MON JAN 22 2018

NOTE: "FAIR" INDICATES FEW OR NO CLOUDS BELOW 12,000 FEET WITH NO
      SIGNIFICANT WEATHER AND/OR OBSTRUCTIONS TO VISIBILITY.
      SKY/WX - SKY CONDITION AND SIGNIFICANT WEATHER.
      TMP - AIR TEMPERATURE.     DP    - DEWPOINT TEMPERATURE.
      RH  - RELATIVE HUMIDITY.   PRES  - PRESSURE.
      HI  - HEAT INDEX.          WCI   - WIND CHILL INDEX.

*  THESE STATIONS ARE NOT NWS OR FAA STATIONS AND ARE NOT UNDER
   NWS QUALITY CONTROL.

LAZ038-040-048-061>063-065>067-069-221900-
SOUTHEAST LOUISIANA

CITY           SKY/WX    TMP DP  RH WIND       PRES   REMARKS
N.O. INTL ARPT CLOUDY    74  67  78 NW12G20   29.92F
6HR MIN TEMP:  62; 6HR MAX TEMP:  75; 6HR PCP: TRACE;

N.O. LAKEFRONT CLOUDY    59  57  93 NW13      29.94F
6HR MIN TEMP:  58; 6HR MAX TEMP:  71; 6HR PCP: TRACE;

N.O. DOWNTOWN* CLOUDY    73  67  81 VRB7      29.93F
6HR MIN TEMP:  63; 6HR MAX TEMP:  73; 6HR PCP: TRACE;

RESERVE*       MOCLDY    69  65  86 W6        29.93F
6HR MIN TEMP:  63; 6HR MAX TEMP:  73; 6HR PCP:  0.02;

SLIDELL        CLOUDY    69  62  78 VRB6      29.92F
6HR MIN TEMP:  62; 6HR MAX TEMP:  72; 6HR PCP: TRACE;

BATON ROUGE    FAIR      70  43  37 NW13G18   29.94F
6HR MIN TEMP:  63; 6HR MAX TEMP:  70; 6HR PCP:  0.39;

BOOTHVILLE     PTSUNNY   66  64  93 S6        29.96F
6HR MIN TEMP:  63; 6HR MAX TEMP:  68; 6HR PCP:  0.58;

BELLE CHASSE   CLOUDY    74  71  91 SW10G17   29.92F
6HR MIN TEMP:  59; 6HR MAX TEMP:  74;

BOGALUSA*      CLOUDY    70  64  83 W8        29.92F
6HR MIN TEMP:  62; 6HR MAX TEMP:  70; 6HR PCP:  0.07;

GALLIANO*      MOCLDY    71  65  83 SW16      29.94F
6HR MIN TEMP:  60; 6HR MAX TEMP:  71; 6HR PCP:  0.64;

NEW ROADS*     MOCLDY    69  39  33 NW14      29.96F
6HR MIN TEMP:  64; 6HR MAX TEMP:  69; 6HR PCP:  0.08;

GONZALES*      CLOUDY    66  63  88 NW7G16    29.93F
6HR MIN TEMP:  64; 6HR MAX TEMP:  69; 6HR PCP:  0.32;

HAMMOND*       CLOUDY    66  63  88 NE7       29.93F
HOUMA*         CLOUDY    73  68  83 SW16      29.92F
PORT FOURCHON* CLEAR     70  66  88 SW15G21   29.94F

$$

MSZ070-080>082-221900-
SOUTHERN MISSISSIPPI

CITY           SKY/WX    TMP DP  RH WIND       PRES   REMARKS
MCCOMB         FAIR      69  46  43 W9        29.93F
6HR MIN TEMP:  63; 6HR MAX TEMP:  69; 6HR PCP:  0.24;

GULFPORT       PTSUNNY   69  61  75 SW9       29.92F
6HR MIN TEMP:  61; 6HR MAX TEMP:  68; 6HR PCP: TRACE;

BILOXI         PTSUNNY   64  61  91 SW12      29.92F
6HR MIN TEMP:  60; 6HR MAX TEMP:  65; 6HR PCP: TRACE;

PASCAGOULA     PTSUNNY   70  65  84 S12       29.94F FOG
6HR MIN TEMP:  61; 6HR MAX TEMP:  70; 6HR PCP: TRACE;

STENNIS ARPT*  PTSUNNY   72  66  83 SW15G21   29.92F

$$

COASTAL OBSERVATIONS
LAKE AND NEARSHORE STATIONS

STATION/POSITION TIME  SKY/WX   TEMP    WIND        PRES    WAVE
                                AIR SEA DIR/SP/G            HT/PER
                 (UTC)          (F)     (DEG/KT/KT) (MB)    (FT/S)
PASCAGOULA       1748            65     180/ 11/ 15 1013.6
WAVELAND YACHT   1748            63 51  220/  7/ 11 1013.3
GRAND ISLE       1748            70 57  250/ 10/ 14 1014.0
SOUTHWEST PASS   1748            65 51  230/  5/  6 1015.0
NEW CANAL        1748            62 49  310/  4/  8 1013.6
SHELL BEACH      1748            67 53  210/ 11/ 12 1013.6

OFFSHORE STATIONS

STATION/POSITION TIME  SKY/WX   TEMP    WIND        PRES    WAVE
                                AIR SEA DIR/SP/G            HT/PER
                 (UTC)          (F)     (DEG/KT/KT) (MB)    (FT/S)
64 S DAUPHIN ISL 1750            70 67  160/ 14/ 17 1013.6    6/ 7

$$





USA.gov is the U.S. government's official web portal to all federal, state and local government web resources and services.